Simultaneous Nadir Overpasses (SNOs) Predictions

Prediction of SNOs between GOES-16 and NOAA-20 Satellite Orbit:

Table of predicted SNOs for the next 14.0 days since TLE Epoch: 6/17/2023
Index Date Time (GOES-16) GOES-16 Lat,Lon NOAA-20 Lat,Lon Distance(km) Time Diff (sec)
1 06/17/2023 18:11:29 0.02, -75.21 0.91, -71.19 457.60 80
2 06/19/2023 06:30:38 -0.02, -75.21 0.28, -76.46 143.16 80
3 06/20/2023 06:14:34 -0.02, -75.22 -0.76, -71.94 373.65 80
4 06/21/2023 18:33:51 0.02, -75.23 -0.44, -77.25 229.93 80
5 06/22/2023 18:17:48 0.02, -75.25 0.60, -72.73 287.40 80
6 06/24/2023 06:36:56 -0.02, -75.26 0.58, -78.00 311.92 80
7 06/25/2023 06:20:52 -0.02, -75.28 -0.40, -73.47 205.85 80
8 06/26/2023 18:40:10 0.02, -75.31 -0.73, -78.79 396.47 80
9 06/27/2023 18:24:06 0.02, -75.33 0.26, -74.26 121.58 80
10 06/29/2023 06:43:14 -0.03, -75.35 0.93, -79.53 476.97 80
11 06/30/2023 06:27:10 -0.03, -75.37 -0.13, -75.02 41.11 80
